TimeCDT,TemperatureF,Dew PointF,Humidity,Sea Level PressureIn,VisibilityMPH,Wind Direction,Wind SpeedMPH,Gust SpeedMPH,PrecipitationIn,Events,Conditions,WindDirDegrees,DateUTC
12:53 AM,64.0,55.0,73,29.99,10.0,NNE,6.9,-,N/A,,Clear,30,2012-10-16 05:53:00
1:53 AM,63.0,55.0,75,29.98,10.0,NE,6.9,-,N/A,,Clear,40,2012-10-16 06:53:00
2:53 AM,62.1,55.0,78,29.97,10.0,NE,6.9,-,N/A,,Clear,50,2012-10-16 07:53:00
3:53 AM,62.1,55.0,78,29.94,10.0,ENE,4.6,-,N/A,,Clear,60,2012-10-16 08:53:00
4:53 AM,61.0,55.0,81,29.95,10.0,ENE,3.5,-,N/A,,Clear,60,2012-10-16 09:53:00
5:53 AM,61.0,54.0,78,29.95,10.0,ENE,4.6,-,N/A,,Clear,60,2012-10-16 10:53:00
7:53 AM,61.0,55.0,81,29.97,10.0,ENE,5.8,-,N/A,,Clear,70,2012-10-16 12:53:00
8:53 AM,66.0,57.9,75,29.98,10.0,East,4.6,-,N/A,,Clear,100,2012-10-16 13:53:00
9:53 AM,72.0,57.9,61,29.98,10.0,East,8.1,-,N/A,,Clear,100,2012-10-16 14:53:00
10:53 AM,75.9,57.9,54,29.98,10.0,ESE,10.4,-,N/A,,Clear,120,2012-10-16 15:53:00
11:53 AM,79.0,59.0,50,29.96,10.0,ESE,8.1,-,N/A,,Clear,120,2012-10-16 16:53:00
12:53 PM,81.0,60.1,49,29.93,10.0,SSE,6.9,-,N/A,,Clear,150,2012-10-16 17:53:00
1:53 PM,82.0,59.0,45,29.89,10.0,SSW,3.5,-,N/A,,Partly Cloudy,210,2012-10-16 18:53:00
2:53 PM,81.0,61.0,50,29.87,10.0,SSW,6.9,-,N/A,,Clear,200,2012-10-16 19:53:00
3:53 PM,79.0,61.0,54,29.86,10.0,SSW,8.1,-,N/A,,Clear,210,2012-10-16 20:53:00
4:53 PM,78.1,63.0,60,29.84,10.0,South,4.6,-,N/A,,Clear,190,2012-10-16 21:53:00
5:53 PM,77.0,64.0,64,29.84,10.0,Calm,Calm,-,N/A,,Clear,0,2012-10-16 22:53:00
6:53 PM,75.0,64.9,71,29.85,10.0,Calm,Calm,-,N/A,,Clear,0,2012-10-16 23:53:00
7:53 PM,73.0,64.0,73,29.86,10.0,Calm,Calm,-,N/A,,Clear,0,2012-10-17 00:53:00
8:53 PM,73.0,64.9,76,29.86,10.0,ENE,5.8,-,N/A,,Clear,70,2012-10-17 01:53:00
9:53 PM,71.1,64.9,81,29.86,10.0,SE,6.9,-,N/A,,Clear,130,2012-10-17 02:53:00
10:53 PM,71.1,64.0,78,29.85,10.0,SE,5.8,-,N/A,,Clear,140,2012-10-17 03:53:00
11:53 PM,71.1,63.0,75,29.84,10.0,SSE,3.5,-,N/A,,Mostly Cloudy,150,2012-10-17 04:53:00